Location: Wanzleben
(52.0609°N, 11.4408°E)
Time: 06:32:48
(UTC+00:00)

Cosmos 1300 Rocket - Pass Details

Date: 18 September 2020
Orbit: 602 x 626 km, 82.5° (Epoch: 20 October)

Event Time Altitude Azimuth Distance (km) Brightness Sun altitude
Rises 18:17:36 0° 166° (SSE) 2,880 6.7 -9.4°
Reaches altitude 10° 18:19:55 10° 158° (SSE) 1,984 5.8 -9.7°
Maximum altitude 18:23:58 37° 91° (E) 981 4.1 -10.3°
Drops below altitude 10° 18:28:03 10° 25° (NNE) 2,010 6.1 -10.9°
Sets 18:30:25 0° 17° (NNE) 2,924 7.0 -11.3°
